Time,TemperatureF,DewpointF,PressureIn,WindDirection,WindDirectionDegrees,WindSpeedMPH,WindSpeedGustMPH,Humidity,HourlyPrecipIn,Conditions,Clouds,dailyrainin,SoftwareType,DateUTC
2013-08-16 00:13:00,57.0,50.0,30.12,South,180,0.0,0.0,77,0.00,,,0.00,,2013-08-16 04:13:00,
2013-08-16 00:23:00,56.0,49.0,30.12,South,180,0.0,0.0,78,0.00,,,0.00,,2013-08-16 04:23:00,
2013-08-16 00:33:00,56.0,49.0,30.12,South,180,0.0,0.0,78,0.00,,,0.00,,2013-08-16 04:33:00,
2013-08-16 00:42:00,56.0,49.0,30.12,South,180,0.0,0.0,78,0.00,,,0.00,,2013-08-16 04:42:00,
2013-08-16 00:53:00,56.0,49.0,30.12,South,180,0.0,0.0,78,0.00,,,0.00,,2013-08-16 04:53:00,
2013-08-16 01:12:00,56.0,50.0,30.12,South,180,0.0,0.0,80,0.00,,,0.00,,2013-08-16 05:12:00,
2013-08-16 01:22:00,55.0,49.0,30.12,South,180,0.0,0.0,80,0.00,,,0.00,,2013-08-16 05:22:00,
2013-08-16 01:42:00,55.0,49.0,30.11,South,180,0.0,0.0,81,0.00,,,0.00,,2013-08-16 05:42:00,
2013-08-16 03:00:00,54.0,49.0,30.10,South,180,0.0,0.0,82,0.00,,,0.00,,2013-08-16 07:00:00,
2013-08-16 03:11:00,54.0,48.0,30.10,South,180,0.0,0.0,81,0.00,,,0.00,,2013-08-16 07:11:00,
2013-08-16 03:21:00,53.0,48.0,30.10,South,180,0.0,0.0,82,0.00,,,0.00,,2013-08-16 07:21:00,
2013-08-16 03:42:00,53.0,48.0,30.10,South,180,0.0,0.0,82,0.00,,,0.00,,2013-08-16 07:42:00,
2013-08-16 03:52:00,53.0,48.0,30.10,South,180,0.0,0.0,82,0.00,,,0.00,,2013-08-16 07:52:00,
2013-08-16 04:11:00,52.0,47.0,30.10,South,180,0.0,0.0,82,0.00,,,0.00,,2013-08-16 08:11:00,
2013-08-16 04:21:00,52.0,47.0,30.10,South,180,0.0,0.0,83,0.00,,,0.00,,2013-08-16 08:21:00,
2013-08-16 04:42:00,52.0,47.0,30.10,South,180,0.0,0.0,82,0.00,,,0.00,,2013-08-16 08:42:00,
2013-08-16 04:52:00,51.0,46.0,30.10,South,180,0.0,0.0,83,0.00,,,0.00,,2013-08-16 08:52:00,
2013-08-16 05:01:00,51.0,46.0,30.10,South,180,0.0,0.0,83,0.00,,,0.00,,2013-08-16 09:01:00,
2013-08-16 05:11:00,51.0,46.0,30.10,South,180,0.0,0.0,83,0.00,,,0.00,,2013-08-16 09:11:00,
2013-08-16 05:21:00,51.0,46.0,30.10,South,180,0.0,0.0,83,0.00,,,0.00,,2013-08-16 09:21:00,
2013-08-16 05:53:00,51.0,46.0,30.11,South,180,0.0,0.0,83,0.00,,,0.00,,2013-08-16 09:53:00,
2013-08-16 06:13:00,51.0,46.0,30.11,South,180,0.0,0.0,83,0.00,,,0.00,,2013-08-16 10:13:00,
2013-08-16 06:23:00,50.0,45.0,30.12,South,180,0.0,0.0,84,0.00,,,0.00,,2013-08-16 10:23:00,
2013-08-16 06:52:00,50.0,45.0,30.12,South,180,0.0,0.0,84,0.00,,,0.00,,2013-08-16 10:52:00,
2013-08-16 07:12:00,50.0,45.0,30.12,South,180,0.0,0.0,84,0.00,,,0.00,,2013-08-16 11:12:00,
2013-08-16 07:21:00,50.0,45.0,30.12,South,180,0.0,0.0,84,0.00,,,0.00,,2013-08-16 11:21:00,
2013-08-16 07:42:00,50.0,46.0,30.13,South,180,0.0,0.0,85,0.00,,,0.00,,2013-08-16 11:42:00,
2013-08-16 07:52:00,50.0,46.0,30.13,South,180,0.0,0.0,85,0.00,,,0.00,,2013-08-16 11:52:00,
2013-08-16 08:12:00,50.0,46.0,30.13,South,180,0.0,0.0,85,0.00,,,0.00,,2013-08-16 12:12:00,
2013-08-16 08:21:00,50.0,46.0,30.13,South,180,0.0,0.0,85,0.00,,,0.00,,2013-08-16 12:21:00,
2013-08-16 08:42:00,51.0,47.0,30.13,South,180,0.0,0.0,85,0.00,,,0.00,,2013-08-16 12:42:00,
2013-08-16 08:52:00,51.0,47.0,30.13,South,180,0.0,0.0,86,0.00,,,0.00,,2013-08-16 12:52:00,
2013-08-16 09:11:00,52.0,48.0,30.14,South,180,0.0,0.0,86,0.00,,,0.00,,2013-08-16 13:11:00,
2013-08-16 09:22:00,52.0,48.0,30.14,South,180,0.0,0.0,86,0.00,,,0.00,,2013-08-16 13:22:00,
2013-08-16 09:42:00,54.0,50.0,30.14,South,180,0.0,0.0,87,0.00,,,0.00,,2013-08-16 13:42:00,
2013-08-16 09:53:00,55.0,51.0,30.13,South,180,0.0,0.0,87,0.00,,,0.00,,2013-08-16 13:53:00,
2013-08-16 10:11:00,56.0,52.0,30.14,South,180,0.0,0.0,87,0.00,,,0.00,,2013-08-16 14:11:00,
2013-08-16 10:22:00,58.0,54.0,30.14,SSW,202,0.0,2.0,87,0.00,,,0.00,,2013-08-16 14:22:00,
2013-08-16 10:42:00,59.0,54.0,30.14,SSW,202,0.0,2.0,84,0.00,,,0.00,,2013-08-16 14:42:00,
2013-08-16 10:52:00,61.0,55.0,30.13,SSW,202,0.0,0.0,82,0.00,,,0.00,,2013-08-16 14:52:00,
2013-08-16 11:12:00,62.0,56.0,30.14,SSW,202,0.0,0.0,80,0.00,,,0.00,,2013-08-16 15:12:00,
2013-08-16 11:22:00,63.0,56.0,30.15,SSW,202,0.0,1.0,78,0.00,,,0.00,,2013-08-16 15:22:00,
2013-08-16 11:43:00,65.0,57.0,30.14,SSW,202,0.0,0.0,76,0.00,,,0.00,,2013-08-16 15:43:00,
2013-08-16 11:56:00,65.0,57.0,30.14,SSW,202,0.0,0.0,76,0.00,,,0.00,,2013-08-16 15:56:00,
2013-08-16 12:13:00,70.0,59.0,30.14,SSW,202,0.0,0.0,69,0.00,,,0.00,,2013-08-16 16:13:00,
2013-08-16 12:23:00,71.0,59.0,30.13,SSW,202,0.0,0.0,67,0.00,,,0.00,,2013-08-16 16:23:00,
2013-08-16 12:43:00,73.0,60.0,30.13,SSW,202,0.0,0.0,64,0.00,,,0.00,,2013-08-16 16:43:00,
2013-08-16 12:57:00,73.0,60.0,30.13,SSW,202,0.0,0.0,63,0.00,,,0.00,,2013-08-16 16:57:00,
2013-08-16 13:13:00,74.0,61.0,30.13,SSW,202,0.0,0.0,63,0.00,,,0.00,,2013-08-16 17:13:00,
2013-08-16 13:28:00,76.0,61.0,30.13,NW,315,0.0,0.0,60,0.00,,,0.00,,2013-08-16 17:28:00,
2013-08-16 13:47:00,76.0,60.0,30.13,NW,315,0.0,0.0,58,0.00,,,0.00,,2013-08-16 17:47:00,
2013-08-16 14:00:00,76.0,60.0,30.13,SSW,202,0.0,2.0,58,0.00,,,0.00,,2013-08-16 18:00:00,
2013-08-16 14:15:00,76.0,60.0,30.13,SSW,202,0.0,2.0,58,0.00,,,0.00,,2013-08-16 18:15:00,
2013-08-16 14:28:00,76.0,60.0,30.13,SSW,202,0.0,2.0,58,0.00,,,0.00,,2013-08-16 18:28:00,
2013-08-16 14:50:00,-999.0,-99.9,30.12,NNE,22,0.0,2.0,54,0.00,,,0.00,,2013-08-16 18:50:00,
2013-08-16 15:14:00,75.0,58.0,30.12,NNE,22,0.0,0.0,55,0.00,,,0.00,,2013-08-16 19:14:00,
2013-08-16 15:25:00,75.0,59.0,30.11,SSW,202,1.0,2.0,57,0.00,,,0.00,,2013-08-16 19:25:00,
2013-08-16 15:46:00,76.0,60.0,30.11,South,180,0.0,1.0,57,0.00,,,0.00,,2013-08-16 19:46:00,
2013-08-16 15:55:00,76.0,59.0,30.11,South,180,0.0,1.0,56,0.00,,,0.00,,2013-08-16 19:55:00,
2013-08-16 16:11:00,76.0,59.0,30.11,South,180,0.0,0.0,55,0.00,,,0.00,,2013-08-16 20:11:00,
2013-08-16 16:23:00,75.0,58.0,30.11,South,180,0.0,0.0,55,0.00,,,0.00,,2013-08-16 20:23:00,
2013-08-16 16:44:00,74.0,58.0,30.11,South,180,0.0,0.0,57,0.00,,,0.00,,2013-08-16 20:44:00,
2013-08-16 16:52:00,73.0,58.0,30.11,South,180,0.0,0.0,60,0.00,,,0.00,,2013-08-16 20:52:00,
2013-08-16 17:11:00,73.0,59.0,30.11,South,180,0.0,0.0,61,0.00,,,0.00,,2013-08-16 21:11:00,
2013-08-16 17:25:00,73.0,58.0,30.11,South,180,0.0,0.0,60,0.00,,,0.00,,2013-08-16 21:25:00,
2013-08-16 17:40:00,-999.0,-99.9,30.11,South,180,0.0,0.0,-999,0.00,,,0.00,,2013-08-16 21:40:00,
2013-08-16 17:54:00,74.0,58.0,30.11,East,90,0.0,0.0,58,0.00,,,0.00,,2013-08-16 21:54:00,
2013-08-16 18:13:00,73.0,58.0,30.11,East,90,0.0,0.0,59,0.00,,,0.00,,2013-08-16 22:13:00,
2013-08-16 18:24:00,73.0,59.0,30.12,East,90,0.0,0.0,61,0.00,,,0.00,,2013-08-16 22:24:00,
2013-08-16 18:52:00,72.0,58.0,30.12,East,90,0.0,0.0,62,0.00,,,0.00,,2013-08-16 22:52:00,
2013-08-16 19:12:00,72.0,58.0,30.12,East,90,0.0,0.0,61,0.00,,,0.00,,2013-08-16 23:12:00,
2013-08-16 19:23:00,71.0,57.0,30.12,East,90,0.0,0.0,62,0.00,,,0.00,,2013-08-16 23:23:00,
2013-08-16 19:32:00,71.0,57.0,30.12,East,90,0.0,0.0,62,0.00,,,0.00,,2013-08-16 23:32:00,
2013-08-16 19:42:00,71.0,57.0,30.12,East,90,0.0,0.0,62,0.00,,,0.00,,2013-08-16 23:42:00,
2013-08-16 19:52:00,71.0,58.0,30.12,East,90,0.0,0.0,64,0.00,,,0.00,,2013-08-16 23:52:00,
2013-08-16 20:12:00,71.0,59.0,30.13,East,90,0.0,0.0,65,0.00,,,0.00,,2013-08-17 00:12:00,
2013-08-16 20:21:00,70.0,58.0,30.13,East,90,0.0,0.0,66,0.00,,,0.00,,2013-08-17 00:21:00,
2013-08-16 20:42:00,69.0,57.0,30.13,East,90,0.0,0.0,66,0.00,,,0.00,,2013-08-17 00:42:00,
2013-08-16 20:52:00,69.0,57.0,30.13,East,90,0.0,0.0,66,0.00,,,0.00,,2013-08-17 00:52:00,
2013-08-16 21:11:00,68.0,57.0,30.14,East,90,0.0,0.0,67,0.00,,,0.00,,2013-08-17 01:11:00,
2013-08-16 21:21:00,68.0,57.0,30.14,East,90,0.0,0.0,67,0.00,,,0.00,,2013-08-17 01:21:00,
2013-08-16 21:32:00,68.0,57.0,30.14,East,90,0.0,0.0,67,0.00,,,0.00,,2013-08-17 01:32:00,
2013-08-16 21:42:00,68.0,57.0,30.14,East,90,0.0,0.0,67,0.00,,,0.00,,2013-08-17 01:42:00,
2013-08-16 21:52:00,65.0,55.0,30.16,East,90,0.0,0.0,70,0.00,,,0.00,,2013-08-17 01:52:00,
2013-08-16 22:01:00,65.0,55.0,30.16,East,90,0.0,0.0,70,0.00,,,0.00,,2013-08-17 02:01:00,
2013-08-16 22:11:00,65.0,55.0,30.16,East,90,0.0,0.0,70,0.00,,,0.00,,2013-08-17 02:11:00,
2013-08-16 22:21:00,64.0,54.0,30.15,East,90,0.0,0.0,71,0.00,,,0.00,,2013-08-17 02:21:00,
2013-08-16 22:42:00,63.0,54.0,30.15,East,90,0.0,0.0,72,0.00,,,0.00,,2013-08-17 02:42:00,
2013-08-16 22:52:00,62.0,53.0,30.15,East,90,0.0,0.0,72,0.00,,,0.00,,2013-08-17 02:52:00,
2013-08-16 23:11:00,62.0,54.0,30.15,East,90,0.0,0.0,74,0.00,,,0.00,,2013-08-17 03:11:00,
2013-08-16 23:22:00,61.0,53.0,30.15,East,90,0.0,0.0,74,0.00,,,0.00,,2013-08-17 03:22:00,
2013-08-16 23:53:00,60.0,52.0,30.15,East,90,0.0,0.0,76,0.00,,,0.00,,2013-08-17 03:53:00,